Location: M?digepalle
(16.1753°N, 80.3496°E)
Time: 09:06:07
(UTC+00:00)

ADEOS - Pass Details

Date: 29 October 2020
Orbit: 793 x 794 km, 98.9° (Epoch: 27 November)

Event Time Altitude Azimuth Distance (km) Brightness Sun altitude
Rises 22:52:12 0° 13° (NNE) 3,286 6.8 -25.1°
Reaches altitude 10° 22:54:31 10° 14° (NNE) 2,356 6.1 -24.5°
Maximum altitude 22:59:44 86° 102° (ESE) 798 3.5 -23.3°
Drops below altitude 10° 23:04:56 10° 192° (SSW) 2,352 6.0 -22.1°
Sets 23:07:15 0° 192° (SSW) 3,280 6.7 -21.5°
